Terminal Aerodrome Forecast
Issued by NWS

Home | Current Version | Previous Version | Text Only | Print | Product List | Glossary On
Versions: 1 2 3 4 5 6 7 8 9 10 11 12 13 14 15 16
000
FTUS42 KMLB 291120
TAFTIX
TAF
KTIX 291120Z 2912/3012 08006KT P6SM FEW015 SCT025 BKN250
     FM291600 07009KT P6SM VCSH SCT035 SCT250
     FM292000 09009KT P6SM SCT035 SCT250
     FM300200 07003KT P6SM SCT030 SCT100 BKN200=

USA.gov is the U.S. government's official web portal to all federal, state and local government web resources and services.